![]() |
EMODnet Physics ERDDAP
Easier access to scientific data |
log in|
Brought to you by EMODnet Physics |
| Dataset Title: | NDBC - Collection of dew point temperature (DEWT) TimeSeries - IN SITU MultiPointTimeSeriesObservation
|
| Institution: | NDBC (Dataset ID: TS_DEWT_NDBC) |
| Information: | Summary
| License
| FGDC
| ISO 19115
| Metadata
| Background
| Subset
| Data Access Form
| Make a graph
|
| Name | Last modified | Size | Description | |
|---|---|---|---|---|
| Parent Directory | - | - | ||
| 51205_TS_DEWT_012012.nc | 27-Oct-2024 04:04 | 451085 | ||
| 51205_TS_DEWT_012013.nc | 27-Oct-2024 04:04 | 450016 | ||
| 51205_TS_DEWT_012014.nc | 27-Oct-2024 04:04 | 450875 | ||
| 51205_TS_DEWT_012015.nc | 27-Oct-2024 04:04 | 450180 | ||
| 51205_TS_DEWT_012016.nc | 27-Oct-2024 04:04 | 448958 | ||
| 51205_TS_DEWT_012017.nc | 27-Oct-2024 04:04 | 450228 | ||
| 51205_TS_DEWT_012018.nc | 27-Oct-2024 04:04 | 449781 | ||
| 51205_TS_DEWT_012019.nc | 27-Oct-2024 04:04 | 449208 | ||
| 51205_TS_DEWT_012020.nc | 27-Oct-2024 04:04 | 451538 | ||
| 51205_TS_DEWT_012021.nc | 27-Oct-2024 04:04 | 444160 | ||
| 51205_TS_DEWT_012024.nc | 05-Dec-2024 19:47 | 450292 | ||
| 51205_TS_DEWT_022012.nc | 27-Oct-2024 04:04 | 1265507 | ||
| 51205_TS_DEWT_022013.nc | 27-Oct-2024 04:04 | 479261 | ||
| 51205_TS_DEWT_022014.nc | 27-Oct-2024 04:04 | 992426 | ||
| 51205_TS_DEWT_022015.nc | 27-Oct-2024 04:05 | 1266257 | ||
| 51205_TS_DEWT_022016.nc | 27-Oct-2024 04:05 | 1265921 | ||
| 51205_TS_DEWT_022017.nc | 27-Oct-2024 04:05 | 1265330 | ||
| 51205_TS_DEWT_022018.nc | 27-Oct-2024 04:05 | 1266905 | ||
| 51205_TS_DEWT_022019.nc | 27-Oct-2024 04:05 | 429612 | ||
| 51205_TS_DEWT_022020.nc | 27-Oct-2024 04:05 | 429611 | ||
| 51205_TS_DEWT_022021.nc | 27-Oct-2024 04:05 | 429610 | ||
| 51205_TS_DEWT_022022.nc | 27-Oct-2024 04:05 | 429608 | ||
| 51205_TS_DEWT_032012.nc | 27-Oct-2024 04:05 | 427892 | ||
| 51205_TS_DEWT_032013.nc | 27-Oct-2024 04:05 | 429606 | ||
| 51205_TS_DEWT_032015.nc | 27-Oct-2024 04:05 | 429624 | ||
| 51205_TS_DEWT_032016.nc | 27-Oct-2024 04:05 | 429616 | ||
| 51205_TS_DEWT_032017.nc | 27-Oct-2024 04:05 | 429603 | ||
| 51205_TS_DEWT_032018.nc | 27-Oct-2024 04:05 | 429621 | ||
| 51205_TS_DEWT_032019.nc | 27-Oct-2024 04:05 | 428185 | ||
| 51205_TS_DEWT_032020.nc | 27-Oct-2024 04:05 | 429623 | ||
| 51205_TS_DEWT_032021.nc | 27-Oct-2024 04:06 | 429625 | ||
| 51205_TS_DEWT_032022.nc | 27-Oct-2024 04:06 | 429614 | ||
| 51205_TS_DEWT_042012.nc | 27-Oct-2024 04:06 | 429603 | ||
| 51205_TS_DEWT_042013.nc | 27-Oct-2024 04:06 | 429622 | ||
| 51205_TS_DEWT_042015.nc | 27-Oct-2024 04:06 | 429618 | ||
| 51205_TS_DEWT_042016.nc | 27-Oct-2024 04:06 | 429615 | ||
| 51205_TS_DEWT_042017.nc | 27-Oct-2024 04:06 | 429626 | ||
| 51205_TS_DEWT_042018.nc | 27-Oct-2024 04:06 | 429620 | ||
| 51205_TS_DEWT_042019.nc | 27-Oct-2024 04:06 | 429617 | ||
| 51205_TS_DEWT_042020.nc | 27-Oct-2024 04:06 | 429622 | ||
| 51205_TS_DEWT_042021.nc | 27-Oct-2024 04:06 | 429626 | ||
| 51205_TS_DEWT_042022.nc | 27-Oct-2024 04:06 | 450592 | ||
| 51205_TS_DEWT_052012.nc | 27-Oct-2024 04:06 | 448655 | ||
| 51205_TS_DEWT_052013.nc | 27-Oct-2024 04:06 | 443440 | ||
| 51205_TS_DEWT_052014.nc | 27-Oct-2024 04:06 | 450685 | ||
| 51205_TS_DEWT_052015.nc | 27-Oct-2024 04:07 | 450321 | ||
| 51205_TS_DEWT_052016.nc | 27-Oct-2024 04:07 | 451758 | ||
| 51205_TS_DEWT_052017.nc | 27-Oct-2024 04:07 | 450415 | ||
| 51205_TS_DEWT_052018.nc | 27-Oct-2024 04:07 | 449961 | ||
| 51205_TS_DEWT_052019.nc | 27-Oct-2024 04:07 | 451160 | ||
| 51205_TS_DEWT_052020.nc | 27-Oct-2024 04:07 | 450135 | ||
| 51205_TS_DEWT_052021.nc | 27-Oct-2024 04:07 | 449677 | ||
| 51205_TS_DEWT_062012.nc | 27-Oct-2024 04:07 | 433376 | ||
| 51205_TS_DEWT_062013.nc | 27-Oct-2024 04:07 | 450914 | ||
| 51205_TS_DEWT_062014.nc | 27-Oct-2024 04:07 | 429841 | ||
| 51205_TS_DEWT_062015.nc | 27-Oct-2024 04:07 | 451182 | ||
| 51205_TS_DEWT_062016.nc | 27-Oct-2024 04:07 | 1267530 | ||
| 51205_TS_DEWT_062017.nc | 27-Oct-2024 04:07 | 1268522 | ||
| 51205_TS_DEWT_062018.nc | 27-Oct-2024 04:07 | 1268195 | ||
| 51205_TS_DEWT_062019.nc | 27-Oct-2024 04:07 | 1271864 | ||
| 51205_TS_DEWT_062020.nc | 27-Oct-2024 04:08 | 1270247 | ||
| 51205_TS_DEWT_062021.nc | 27-Oct-2024 04:08 | 1266824 | ||
| 51205_TS_DEWT_072012.nc | 27-Oct-2024 04:08 | 1262928 | ||
| 51205_TS_DEWT_072013.nc | 27-Oct-2024 04:08 | 429260 | ||
| 51205_TS_DEWT_072014.nc | 27-Oct-2024 04:08 | 429280 | ||
| 51205_TS_DEWT_072015.nc | 27-Oct-2024 04:08 | 429275 | ||
| 51205_TS_DEWT_072016.nc | 27-Oct-2024 04:08 | 429260 | ||
| 51205_TS_DEWT_072017.nc | 27-Oct-2024 04:08 | 429264 | ||
| 51205_TS_DEWT_072018.nc | 27-Oct-2024 04:08 | 429268 | ||
| 51205_TS_DEWT_072020.nc | 27-Oct-2024 04:08 | 428780 | ||
| 51205_TS_DEWT_072021.nc | 27-Oct-2024 04:08 | 429283 | ||
| 51205_TS_DEWT_082012.nc | 27-Oct-2024 04:08 | 429285 | ||
| 51205_TS_DEWT_082013.nc | 27-Oct-2024 04:08 | 429220 | ||
| 51205_TS_DEWT_082014.nc | 27-Oct-2024 04:08 | 429291 | ||
| 51205_TS_DEWT_082015.nc | 27-Oct-2024 04:08 | 429285 | ||
| 51205_TS_DEWT_082016.nc | 27-Oct-2024 04:08 | 429287 | ||
| 51205_TS_DEWT_082017.nc | 27-Oct-2024 04:08 | 429288 | ||
| 51205_TS_DEWT_082018.nc | 27-Oct-2024 04:08 | 429278 | ||
| 51205_TS_DEWT_082020.nc | 27-Oct-2024 04:09 | 429290 | ||
| 51205_TS_DEWT_082021.nc | 27-Oct-2024 04:09 | 429291 | ||
| 51205_TS_DEWT_092012.nc | 27-Oct-2024 04:09 | 429296 | ||
| 51205_TS_DEWT_092013.nc | 27-Oct-2024 04:09 | 429285 | ||
| 51205_TS_DEWT_092014.nc | 27-Oct-2024 04:09 | 429297 | ||
| 51205_TS_DEWT_092015.nc | 27-Oct-2024 04:09 | 429295 | ||
| 51205_TS_DEWT_092016.nc | 27-Oct-2024 04:09 | 429287 | ||
| 51205_TS_DEWT_092017.nc | 27-Oct-2024 04:09 | 429291 | ||
| 51205_TS_DEWT_092018.nc | 27-Oct-2024 04:09 | 449559 | ||
| 51205_TS_DEWT_092020.nc | 27-Oct-2024 04:09 | 448491 | ||
| 51205_TS_DEWT_092021.nc | 27-Oct-2024 04:09 | 446911 | ||
| 51205_TS_DEWT_092022.nc | 27-Oct-2024 04:09 | 425330 | ||
| 51205_TS_DEWT_092023.nc | 27-Oct-2024 04:09 | 449821 | ||
| 51205_TS_DEWT_102012.nc | 27-Oct-2024 04:09 | 436180 | ||
| 51205_TS_DEWT_102013.nc | 27-Oct-2024 04:09 | 449207 | ||
| 51205_TS_DEWT_102014.nc | 27-Oct-2024 04:09 | 449314 | ||
| 51205_TS_DEWT_102015.nc | 27-Oct-2024 04:09 | 448900 | ||
| 51205_TS_DEWT_102016.nc | 27-Oct-2024 04:09 | 449825 | ||
| 51205_TS_DEWT_102017.nc | 27-Oct-2024 04:09 | 448572 | ||
| 51205_TS_DEWT_102018.nc | 27-Oct-2024 04:10 | 449148 | ||
| 51205_TS_DEWT_102019.nc | 27-Oct-2024 04:10 | 449779 | ||
| 51205_TS_DEWT_102020.nc | 27-Oct-2024 04:10 | 429494 | ||
| 51205_TS_DEWT_102022.nc | 27-Oct-2024 04:10 | 451005 | ||
| 51205_TS_DEWT_102023.nc | 27-Oct-2024 04:10 | 1111298 | ||
| 51205_TS_DEWT_112012.nc | 27-Oct-2024 04:10 | 1113917 | ||
| 51205_TS_DEWT_112013.nc | 27-Oct-2024 04:10 | 1118099 | ||
| 51205_TS_DEWT_112014.nc | 27-Oct-2024 04:10 | 1115159 | ||
| 51205_TS_DEWT_112015.nc | 27-Oct-2024 04:10 | 1110819 | ||
| 51205_TS_DEWT_112016.nc | 27-Oct-2024 04:10 | 1113756 | ||
| 51205_TS_DEWT_112018.nc | 27-Oct-2024 04:10 | 1111679 | ||
| 51205_TS_DEWT_112019.nc | 27-Oct-2024 04:10 | 429327 | ||
| 51205_TS_DEWT_112022.nc | 27-Oct-2024 04:10 | 429609 | ||
| 51205_TS_DEWT_112023.nc | 27-Oct-2024 04:10 | 429612 | ||
| 51205_TS_DEWT_122011.nc | 27-Oct-2024 04:10 | 429607 | ||
| 51205_TS_DEWT_122012.nc | 27-Oct-2024 04:10 | 429612 | ||
| 51205_TS_DEWT_122013.nc | 27-Oct-2024 04:11 | 429596 | ||
| 51205_TS_DEWT_122014.nc | 27-Oct-2024 04:11 | 429620 | ||
| 51205_TS_DEWT_122015.nc | 27-Oct-2024 04:11 | 429559 | ||
| 51205_TS_DEWT_122016.nc | 27-Oct-2024 04:11 | 429628 | ||
| 51205_TS_DEWT_122017.nc | 27-Oct-2024 04:11 | 429615 | ||
| 51205_TS_DEWT_122018.nc | 27-Oct-2024 04:11 | 426722 | ||
| 51205_TS_DEWT_122019.nc | 27-Oct-2024 04:11 | 429621 | ||
| 51205_TS_DEWT_122023.nc | 05-Dec-2024 19:47 | 429615 | ||